Regional Weather Roundup
Issued by NWS

Home | Current Version | Previous Version | Graphics & Text | Print | Product List | Glossary On
Versions: 1 2 3 4 5 6 7 8 9 10 11 12 13 14 15 16 17 18 19 20 21 22 23 24 25 26 27 28 29 30 31 32 33 34 35 36 37 38 39 40 41 42 43 44 45 46 47 48 49 50
000
ASUS43 KIND 231659
RWRIN

WEATHER ROUNDUP FOR INDIANA
NATIONAL WEATHER SERVICE INDIANAPOLIS IN
1200 PM EST FRI FEB 23 2018

NOTE: "FAIR" INDICATES FEW OR NO CLOUDS BELOW 12,000 FEET WITH NO
SIGNIFICANT WEATHER AND/OR OBSTRUCTIONS TO VISIBILITY.

* - STATION DOES NOT REPORT WEATHER SUCH AS PRECIPITATION OR FOG.

+ - STATION NOT QUALITY CONTROLLED BY THE NATIONAL WEATHER SERVICE.
    USE DATA WITH CAUTION...ESPECIALLY DEWPOINT AND RELATIVE
    HUMIDITY OBSERVATIONS.

INZ001>003-010>013-019-020-231800-
NORTHWEST INDIANA

CITY           SKY/WX    TMP DP  RH WIND       PRES   REMARKS
GARY /AIRPORT/ CLOUDY    46  43  87 W17G33    30.16R
MONTICELLO +   CLOUDY    47  46  94 SW17G23   30.18R
RENSSELAER +   CLOUDY    45  41  87 W17       30.19R

$$

LMZ046-743>745-231800-
SOUTHERN LAKE MICHIGAN

STATION/POSITION TIME  TEMP    WIND        PRES    WAVE
                       AIR SEA DIR/SP/G            HT
                 (UTC) (F)     (DEG/KT/KT) (MB)    (FT)
BURNS HARBOR     1640   42     250/ 18/ 20 1021.3R
MICHIGAN CITY    1630   42     230/ 22/ 23   N/A

$$

INZ004-005-014>016-021>024-231800-
NORTH CENTRAL INDIANA

CITY           SKY/WX    TMP DP  RH WIND       PRES   REMARKS
ELKHART        CLOUDY    45  43  93 W13G20    30.13R
GOSHEN         CLOUDY    47  45  93 SW15      30.13R
PERU/GRISSOM   CLOUDY    50  50 100 W15       30.18R
SOUTH BEND     CLOUDY    44  43  96 W17       30.14R
WARSAW +       CLOUDY    46  45  93 NW14G21   30.15R

$$

INZ006>009-017-018-025>027-231800-
NORTHEAST INDIANA

CITY           SKY/WX    TMP DP  RH WIND       PRES   REMARKS
AUBURN +       CLOUDY    46  45  93 SW8       30.13R
FORT WAYNE     CLOUDY    51  49  92 SW17      30.15R
KENDALLVILLE + CLOUDY    46  46 100 SW13      30.13R

$$

INZ028-029-035-036-043>045-051>053-231800-
WEST CENTRAL INDIANA

CITY           SKY/WX    TMP DP  RH WIND       PRES   REMARKS
GREENCASTLE +  CLOUDY    50  46  87 SW6       30.23F
LAFAYETTE      CLOUDY    48  46  93 W12       30.20R
TERRE HAUTE    CLOUDY    52  48  86 W12       30.26R

$$

INZ030>032-037>040-046>048-054>057-064-065-231800-
CENTRAL INDIANA

CITY           SKY/WX    TMP DP  RH WIND       PRES   REMARKS
ANDERSON       CLOUDY    55  54  94 W12G23    30.20S
COLUMBUS       CLOUDY    57 N/A N/A SW9       30.24R
GREENWOOD *+   CLOUDY    55 -38   2 SW9       30.23R
INDIANAPOLIS   CLOUDY    54  52  93 SW13      30.24R
-EAGLE CREEK   CLOUDY    54  49  83 SW8       30.22R
KOKOMO +       CLOUDY    51  48  89 SW16      30.19R
MT COMFORT *+  CLOUDY    54  54 100 SW15G21   30.22R
SHELBYVILLE    CLOUDY    57  53  86 SW17G24   30.22R

$$

INZ033-034-041-042-049-050-058-059-231800-
EAST CENTRAL INDIANA

CITY           SKY/WX    TMP DP  RH WIND       PRES   REMARKS
MUNCIE         CLOUDY    58  53  84 SW15G24   30.18R
RICHMOND +     CLOUDY    57  57 100 SW23      30.21R

$$

INZ060-061-067>069-081>083-085>088-231800-
SOUTHWEST INDIANA

CITY           SKY/WX    TMP DP  RH WIND       PRES   REMARKS
EVANSVILLE     CLOUDY    52  51  97 VRB5      30.30S
HUNTINGBURG +  LGT RAIN  54  52  93 VRB3      30.27F

$$

INZ062-063-066-070>080-084-089>092-231800-
SOUTH CENTRAL AND SOUTHEAST INDIANA

CITY           SKY/WX    TMP DP  RH WIND       PRES   REMARKS
BLOOMINGTON    CLOUDY    54  51  90 W10       30.25R
FRENCH LICK *+ CLOUDY    52 N/A N/A SW6       30.28S
SEYMOUR +      CLOUDY    61  61 100 W14       30.25R FOG

$$





USA.gov is the U.S. government's official web portal to all federal, state and local government web resources and services.